Location: Sungai Lasa
(2.4500°N, 113.4500°E)
Time: 04:36:59
(UTC+00:00)

Cosmos 1745 Rocket - Pass Details

Date: 03 February 2023
Orbit: 952 x 998 km, 83.0° (Epoch: 26 March)

Event Time Altitude Azimuth Distance (km) Brightness Sun altitude
Rises 12:28:28 0° 349° (NNW) 3,634 6.9 -26.7°
Reaches altitude 10° 12:31:00 10° 345° (NNW) 2,684 6.3 -27.3°
Maximum altitude 12:37:00 58° 267° (W) 1,107 4.5 -28.7°
Drops below altitude 10° 12:42:58 10° 189° (S) 2,676 6.6 -30.1°
Sets 12:45:31 0° 185° (S) 3,622 7.3 -30.7°
